CW8468 Weather Reports


Display with metric or nautical units.
time (UTC)temp
F
wind
direction
speed
MPH
gust
MPH
rain 1hr
in
rain 24hr
in
rain mn
in
humidity
%
barometer
mb
20260509014519 73 65 1.0 6.0 0.00 0.00 0.00 87 1008.5
20260509013504 73 154 1.0 4.0 0.00 0.00 0.00 87 1008.5
20260509013027 73 156 2.0 5.0 0.00 0.00 0.00 87 1008.4
20260509012504 73 99 1.0 5.0 0.00 0.00 0.00 87 1008.3
20260509012006 73 81 1.0 4.0 0.00 0.00 0.00 86 1008.4
20260509011519 73 80 2.0 8.0 0.00 0.00 0.00 86 1008.4
20260509011004 73 40 2.0 8.0 0.00 0.00 0.00 86 1008.3
20260509010505 73 106 2.0 7.0 0.00 0.00 0.00 86 1008.2
20260509010025 73 80 1.0 6.0 0.00 0.00 0.00 86 1008.3
20260509005503 73 95 2.0 6.0 0.00 0.00 0.00 86 1008.2
20260509005005 73 98 2.0 6.0 0.00 0.00 0.00 86 1008.2
20260509004518 73 121 2.0 6.0 0.00 0.00 0.00 86 1008.2
20260509004004 73 162 1.0 4.0 0.00 0.00 0.00 86 1008.3
20260509003505 73 145 2.0 9.0 0.00 0.00 0.00 86 1008.2
20260509003026 73 41 2.0 9.0 0.00 0.00 0.00 86 1008.1
20260509002503 73 75 2.0 6.0 0.00 0.00 0.00 86 1008.0
20260509002005 73 19 2.0 6.0 0.00 0.00 0.00 86 1008.2
20260509001517 74 22 1.0 4.0 0.00 0.00 0.00 86 1008.2
20260509000504 74 83 1.0 4.0 0.00 0.00 0.00 85 1008.2
20260509000028 74 113 1.0 6.0 0.00 0.00 0.00 85 1008.4
20260508235503 74 17 2.0 6.0 0.00 0.00 0.00 85 1008.4
20260508234518 74 77 2.0 9.0 0.00 0.00 0.00 84 1008.4
20260508234004 74 148 2.0 4.0 0.00 0.00 0.00 84 1008.4
20260508233028 74 136 2.0 8.0 0.00 0.00 0.00 84 1008.5
20260508232503 74 62 2.0 6.0 0.00 0.00 0.00 84 1008.5
20260508232004 74 111 2.0 6.0 0.00 0.00 0.00 85 1008.5
20260508231517 74 85 2.0 6.0 0.00 0.00 0.00 84 1008.5
20260508231004 74 91 2.0 7.0 0.00 0.00 0.00 84 1008.6
20260508230503 74 72 2.0 6.0 0.00 0.00 0.00 84 1008.6
20260508230025 74 85 2.0 6.0 0.00 0.00 0.00 84 1008.6
20260508225504 74 195 2.0 6.0 0.00 0.00 0.00 84 1008.4
20260508225004 74 171 2.0 7.0 0.00 0.00 0.00 84 1008.3
20260508224519 74 128 2.0 7.0 0.00 0.00 0.00 84 1008.4
20260508224003 74 63 3.0 7.0 0.00 0.00 0.00 83 1008.4
20260508223503 75 22 3.0 9.0 0.00 0.00 0.00 83 1008.4
20260508223027 75 75 2.0 9.0 0.00 0.00 0.00 83 1008.4
20260508222504 75 94 2.0 6.0 0.00 0.00 0.00 83 1008.4
20260508222005 75 34 2.0 8.0 0.00 0.00 0.00 82 1008.4
20260508221004 75 151 2.0 8.0 0.00 0.00 0.00 83 1008.4
20260508220503 75 37 2.0 8.0 0.00 0.00 0.00 82 1008.5
20260508220027 75 45 1.0 5.0 0.00 0.00 0.00 82 1008.6
20260508215004 75 128 2.0 5.0 0.00 0.00 0.00 82 1008.6
20260508214519 75 280 2.0 7.0 0.00 0.00 0.00 82 1008.5
20260508214003 75 137 2.0 7.0 0.00 0.00 0.00 82 1008.6
20260508213503 75 87 2.0 6.0 0.00 0.00 0.00 83 1008.6
20260508213025 74 135 1.0 6.0 0.00 0.00 0.00 83 1008.8
20260508212503 74 54 1.0 3.0 0.00 0.00 0.00 83 1009.1
20260508212004 74 169 2.0 6.0 0.00 0.00 0.00 82 1009.2
20260508211518 74 105 2.0 6.0 0.00 0.00 0.00 82 1009.1
20260508211005 75 120 2.0 4.0 0.00 0.00 0.00 82 1009.1
20260508210503 75 91 2.0 5.0 0.00 0.00 0.00 81 1009.0
20260508210027 75 85 2.0 6.0 0.00 0.00 0.00 81 1009.1
20260508205502 75 58 1.0 4.0 0.00 0.00 0.00 81 1009.1
20260508204518 75 66 2.0 6.0 0.00 0.00 0.00 81 1009.0
20260508204005 75 154 2.0 6.0 0.00 0.00 0.00 80 1009.2
20260508203504 75 153 2.0 6.0 0.00 0.00 0.00 81 1009.1
20260508203029 75 73 2.0 7.0 0.00 0.00 0.00 80 1009.4
20260508202503 76 89 2.0 9.0 0.00 0.00 0.00 80 1009.3
20260508202004 76 95 3.0 9.0 0.00 0.00 0.00 79 1009.2
20260508201518 76 98 3.0 8.0 0.00 0.00 0.00 80 1009.1
20260508201004 76 218 3.0 9.0 0.00 0.00 0.00 79 1009.4
20260508195502 76 137 3.0 7.0 0.00 0.00 0.00 79 1009.5
20260508195003 76 119 2.0 5.0 0.00 0.00 0.00 80 1009.4
20260508194517 76 158 2.0 5.0 0.00 0.00 0.00 79 1009.6
20260508194005 75 99 2.0 6.0 0.00 0.00 0.00 80 1009.6
20260508193502 74 98 1.0 6.0 0.00 0.00 0.00 81 1009.7
20260508193024 74 99 1.0 3.0 0.00 0.00 0.00 81 1010.1
20260508192502 74 91 1.0 3.0 0.00 0.00 0.00 81 1010.3
20260508192003 74 75 1.0 2.0 0.00 0.00 0.00 81 1010.3
20260508191002 74 58 1.0 5.0 0.00 0.00 0.00 81 1010.4
20260508190028 74 118 1.0 3.0 0.00 0.00 0.00 80 1010.3
20260508185501 74 141 1.0 3.0 0.00 0.00 0.00 79 1010.2
20260508185003 74 146 2.0 5.0 0.00 0.00 0.00 80 1010.3
20260508184517 74 46 2.0 5.0 0.00 0.00 0.00 81 1010.1
20260508184003 73 43 2.0 7.0 0.00 0.00 0.00 82 1010.0
20260508183028 73 100 2.0 6.0 0.00 0.00 0.00 81 1010.3
20260508182502 72 68 2.0 6.0 0.00 0.00 0.00 81 1010.2
20260508181004 73 77 2.0 8.0 0.00 0.00 0.00 80 1010.4
20260508180502 72 64 2.0 7.0 0.00 0.00 0.00 80 1010.5
20260508180021 73 89 2.0 7.0 0.00 0.00 0.00 79 1010.3
20260508175500 72 75 2.0 7.0 0.00 0.00 0.00 80 1010.4
20260508174516 72 71 2.0 4.0 0.00 0.00 0.00 80 1011.0
20260508174002 72 81 1.0 4.0 0.00 0.00 0.00 80 1011.2
20260508173502 72 28 1.0 3.0 0.00 0.00 0.00 80 1011.1
20260508173028 72 103 2.0 5.0 0.00 0.00 0.00 80 1011.3
20260508172501 72 348 2.0 5.0 0.00 0.00 0.00 80 1011.1
20260508172002 72 34 2.0 6.0 0.00 0.00 0.00 80 1011.2
20260508171515 71 54 2.0 5.0 0.00 0.00 0.00 81 1011.3
20260508171002 71 42 2.0 6.0 0.00 0.00 0.00 81 1011.4
20260508170028 71 117 1.0 4.0 0.00 0.00 0.00 80 1011.5
20260508165501 71 112 2.0 4.0 0.00 0.00 0.00 79 1011.5
20260508165002 72 141 2.0 8.0 0.00 0.00 0.00 79 1011.5
20260508164516 72 125 2.0 8.0 0.00 0.00 0.00 79 1011.5
20260508164002 72 42 2.0 6.0 0.00 0.00 0.00 78 1011.5
20260508163023 71 67 3.0 10.0 0.00 0.00 0.00 79 1011.5
20260508162501 71 318 3.0 8.0 0.00 0.00 0.00 79 1011.6
20260508161516 70 143 3.0 8.0 0.00 0.00 0.00 81 1011.5
20260508160501 69 54 2.0 10.0 0.00 0.00 0.00 81 1012.0
20260508160025 69 52 2.0 10.0 0.00 0.00 0.00 81 1012.0
20260508155501 69 83 2.0 6.0 0.00 0.00 0.00 81 1012.2
20260508155002 69 57 2.0 5.0 0.00 0.00 0.00 81 1012.2
20260508154516 69 61 3.0 6.0 0.00 0.00 0.00 81 1012.1
20260508154001 69 11 3.0 7.0 0.00 0.00 0.00 80 1012.2
20260508153501 69 15 4.0 9.0 0.00 0.00 0.00 81 1012.3
20260508153024 69 348 3.0 9.0 0.00 0.00 0.00 80 1012.2
20260508152002 69 83 3.0 8.0 0.00 0.00 0.00 80 1012.5
20260508151516 69 32 3.0 8.0 0.00 0.00 0.00 80 1012.5
20260508151002 69 12 4.0 13.0 0.00 0.00 0.00 80 1012.5
20260508150025 69 95 4.0 11.0 0.00 0.00 0.00 79 1012.3
20260508145501 69 348 4.0 9.0 0.00 0.00 0.00 80 1012.2
20260508144516 69 44 3.0 9.0 0.00 0.00 0.00 80 1012.3
20260508144002 69 42 4.0 10.0 0.00 0.00 0.00 80 1012.5
20260508143501 69 22 3.0 10.0 0.00 0.00 0.00 80 1012.4
20260508143024 69 39 3.0 8.0 0.00 0.00 0.00 80 1012.4
20260508142002 68 2 3.0 6.0 0.00 0.00 0.00 81 1012.3
20260508141516 68 340 3.0 6.0 0.00 0.00 0.00 81 1012.6
20260508140501 68 37 2.0 6.0 0.00 0.00 0.00 82 1012.5
20260508140029 68 35 3.0 5.0 0.00 0.00 0.00 82 1012.4
20260508135502 68 3 2.0 5.0 0.00 0.00 0.00 83 1012.3
20260508135002 68 348 1.0 4.0 0.00 0.00 0.00 83 1012.4
20260508134004 68 37 2.0 4.0 0.00 0.00 0.00 83 1012.2
20260508133502 68 342 2.0 6.0 0.00 0.00 0.00 83 1012.1
20260508133028 68 104 2.0 4.0 0.00 0.00 0.00 83 1011.9
20260508132501 68 153 1.0 4.0 0.00 0.00 0.00 82 1012.3
20260508132003 68 101 1.0 3.0 0.00 0.00 0.00 81 1012.1
20260508131003 68 31 1.0 4.0 0.00 0.00 0.00 81 1012.3
20260508130501 68 73 1.0 4.0 0.00 0.00 0.00 81 1012.1
20260508125501 68 331 2.0 4.0 0.00 0.00 0.00 82 1012.1
20260508124515 68 107 2.0 5.0 0.00 0.00 0.00 82 1011.9
20260508124002 67 138 1.0 4.0 0.00 0.00 0.00 82 1011.9
20260508123501 68 127 1.0 6.0 0.00 0.00 0.00 82 1012.0
20260508123024 68 76 1.0 6.0 0.00 0.00 0.00 82 1012.0
20260508122501 68 106 2.0 5.0 0.00 0.00 0.00 83 1012.0
20260508122003 68 87 2.0 5.0 0.00 0.00 0.00 83 1012.1
20260508121517 68 29 1.0 4.0 0.00 0.00 0.00 83 1012.1
20260508121001 67 62 1.0 4.0 0.00 0.00 0.00 83 1012.2
20260508120024 68 13 2.0 5.0 0.00 0.00 0.00 82 1012.6
20260508115500 68 21 2.0 5.0 0.00 0.00 0.00 82 1012.7
20260508115000 68 2 2.0 5.0 0.00 0.00 0.00 81 1012.9
20260508114515 68 326 2.0 5.0 0.00 0.00 0.00 81 1012.8
20260508113459 68 2 2.0 5.0 0.00 0.00 0.00 81 1012.8
20260508113026 68 29 2.0 5.0 0.00 0.00 0.00 81 1012.7
20260508112001 68 28 2.0 5.0 0.00 0.00 0.00 81 1012.6
20260508111515 68 77 1.0 5.0 0.00 0.00 0.00 80 1012.2
20260508111001 68 151 2.0 7.0 0.00 0.00 0.00 80 1012.1
20260508110500 68 115 2.0 7.0 0.00 0.00 0.00 80 1011.7
20260508110029 68 53 1.0 6.0 0.00 0.00 0.00 80 1011.7
20260508105501 68 77 2.0 8.0 0.00 0.00 0.00 80 1011.8
20260508105003 68 63 2.0 9.0 0.00 0.00 0.00 80 1011.6
20260508104517 68 120 2.0 9.0 0.00 0.00 0.00 80 1011.4
20260508104001 68 133 2.0 3.0 0.00 0.00 0.00 79 1011.7
20260508102501 68 19 2.0 5.0 0.00 0.00 0.00 79 1012.4
20260508102002 68 332 1.0 4.0 0.00 0.00 0.00 79 1012.2
20260508101516 68 11 1.0 4.0 0.00 0.00 0.00 78 1012.3
20260508101001 68 45 1.0 4.0 0.00 0.00 0.00 78 1012.3
20260508100502 68 289 1.0 3.0 0.00 0.00 0.00 78 1012.2
20260508100022 68 94 1.0 6.0 0.00 0.00 0.00 78 1012.0
20260508095001 68 43 2.0 5.0 0.00 0.00 0.00 77 1011.8
20260508094001 68 69 2.0 7.0 0.00 0.00 0.00 77 1012.2
20260508093459 68 4 1.0 5.0 0.00 0.00 0.00 77 1012.2
20260508093023 68 34 2.0 4.0 0.00 0.00 0.00 77 1012.2
20260508092459 68 60 2.0 5.0 0.00 0.00 0.00 76 1012.2
20260508092003 68 330 2.0 6.0 0.00 0.00 0.00 76 1012.1
20260508091001 68 56 3.0 7.0 0.00 0.00 0.00 76 1011.4
20260508085459 68 39 2.0 5.0 0.00 0.00 0.00 76 1011.4
20260508085000 68 67 1.0 6.0 0.00 0.00 0.00 76 1011.7
20260508084515 68 102 2.0 6.0 0.00 0.00 0.00 76 1012.0
20260508083500 68 53 2.0 5.0 0.00 0.00 0.00 76 1012.2
20260508083024 68 35 2.0 5.0 0.00 0.00 0.00 75 1012.2
20260508082500 68 50 2.0 6.0 0.00 0.00 0.00 75 1012.2
20260508082001 69 358 2.0 6.0 0.00 0.00 0.00 76 1012.2
20260508081514 68 24 2.0 6.0 0.00 0.00 0.00 75 1012.2
20260508081000 69 41 3.0 6.0 0.00 0.00 0.00 75 1012.1
20260508080459 69 57 2.0 6.0 0.00 0.00 0.00 75 1012.0
20260508080023 69 4 2.0 6.0 0.00 0.00 0.00 75 1011.9
20260508075459 69 31 2.0 6.0 0.00 0.00 0.00 75 1011.9
20260508074959 69 6 2.0 6.0 0.00 0.00 0.00 75 1012.1
20260508074514 69 358 2.0 4.0 0.00 0.00 0.00 75 1012.3
20260508073959 69 4 2.0 4.0 0.00 0.00 0.00 75 1012.5
20260508073459 69 26 2.0 5.0 0.00 0.00 0.00 75 1012.5
20260508073023 69 64 2.0 5.0 0.00 0.00 0.00 75 1012.5
20260508072459 69 331 2.0 4.0 0.00 0.00 0.00 75 1012.5
20260508071514 69 348 2.0 4.0 0.00 0.00 0.00 75 1012.6
20260508070959 69 44 1.0 4.0 0.00 0.00 0.00 75 1012.6
20260508070459 69 340 2.0 5.0 0.00 0.00 0.00 75 1012.5
20260508070023 69 358 2.0 5.0 0.00 0.00 0.00 75 1012.4
20260508064959 69 6 1.0 4.0 0.00 0.00 0.00 75 1012.7
20260508064513 69 348 1.0 3.0 0.00 0.00 0.00 75 1012.7
20260508063959 69 8 1.0 3.0 0.00 0.00 0.00 75 1012.7
20260508063458 69 2 1.0 2.0 0.00 0.00 0.00 75 1012.7
20260508063027 69 12 1.0 2.0 0.00 0.00 0.00 75 1012.6
20260508061514 69 21 1.0 3.0 0.00 0.00 0.00 74 1012.4
20260508061000 69 83 1.0 4.0 0.00 0.00 0.00 74 1012.3
20260508060459 69 69 1.0 4.0 0.00 0.00 0.00 74 1012.4
20260508060030 69 94 1.0 3.0 0.00 0.00 0.00 74 1012.4
20260508055504 69 74 1.0 3.0 0.00 0.00 0.00 73 1012.6
20260508055004 69 39 1.0 3.0 0.00 0.00 0.00 73 1012.6
20260508054518 70 10 1.0 4.0 0.00 0.00 0.00 73 1012.6
20260508053503 70 108 1.0 3.0 0.00 0.00 0.00 73 1012.3
20260508053028 70 96 1.0 3.0 0.00 0.00 0.00 72 1012.4
20260508052503 70 35 2.0 5.0 0.00 0.00 0.00 72 1012.5
20260508052004 70 70 2.0 5.0 0.00 0.00 0.00 72 1012.3
20260508051006 70 37 1.0 4.0 0.00 0.00 0.00 71 1012.5
20260508045504 70 69 2.0 4.0 0.00 0.00 0.00 70 1012.6
20260508045006 70 94 2.0 5.0 0.00 0.00 0.00 71 1012.6
20260508044520 70 87 2.0 5.0 0.00 0.00 0.00 70 1012.6
20260508044005 70 48 2.0 5.0 0.00 0.00 0.00 70 1012.7
20260508043505 70 60 1.0 6.0 0.00 0.00 0.00 70 1012.8
20260508043029 71 41 1.0 6.0 0.00 0.00 0.00 69 1013.0
20260508042005 71 75 2.0 5.0 0.00 0.00 0.00 69 1012.9
20260508041520 71 358 1.0 5.0 0.00 0.00 0.00 69 1012.9
20260508041005 71 112 2.0 5.0 0.00 0.00 0.00 69 1012.8
20260508040505 71 67 3.0 10.0 0.00 0.00 0.00 68 1012.7
20260508035503 71 348 3.0 9.0 0.00 0.00 0.00 68 1012.4
20260508035004 71 29 3.0 9.0 0.00 0.00 0.00 68 1012.4
20260508034518 71 81 3.0 11.0 0.00 0.00 0.00 68 1012.2
20260508034005 71 58 3.0 11.0 0.00 0.00 0.00 67 1012.0
20260508033503 71 88 3.0 10.0 0.00 0.00 0.00 68 1012.1
20260508033030 71 70 2.0 7.0 0.00 0.00 0.00 68 1012.5
20260508032503 71 31 2.0 5.0 0.00 0.00 0.00 67 1012.8
20260508032005 71 85 2.0 5.0 0.00 0.00 0.00 67 1012.9
20260508031521 71 23 2.0 6.0 0.00 0.00 0.00 67 1012.9
20260508031005 72 44 2.0 6.0 0.00 0.00 0.00 66 1013.1
20260508030503 72 21 2.0 6.0 0.00 0.00 0.00 66 1013.2
20260508030027 72 341 3.0 7.0 0.00 0.00 0.00 66 1013.2
20260508025503 72 77 3.0 7.0 0.00 0.00 0.00 66 1013.2
20260508025005 72 35 3.0 7.0 0.00 0.00 0.00 65 1013.2
20260508024519 72 60 3.0 6.0 0.00 0.00 0.00 65 1013.3
20260508024007 72 323 3.0 7.0 0.00 0.00 0.00 66 1013.3
20260508023503 72 341 3.0 5.0 0.00 0.00 0.00 66 1013.1
20260508023025 72 353 3.0 6.0 0.00 0.00 0.00 67 1012.8
20260508022503 72 10 3.0 6.0 0.00 0.00 0.00 66 1012.9
20260508022005 72 2 3.0 7.0 0.00 0.00 0.00 67 1013.1
20260508021518 73 331 2.0 7.0 0.00 0.00 0.00 67 1012.8
20260508021006 73 353 2.0 5.0 0.00 0.00 0.00 67 1013.0
20260508020028 73 27 1.0 5.0 0.00 0.00 0.00 67 1013.0
20260508015504 73 24 1.0 4.0 0.00 0.00 0.00 67 1012.9